Wetterdaten: Woche 27.11.17 - 03.12.17 (KW48)
Datum Zeit Temp. I. Temp. A. Feuchte I. Feuchte A. Luftdruck Regen Wind Richtung Sonnenschein UV Solar Taupunkt Windchill Windben
27.11.2017 00:00 23,1 C 0,8 C 56 % 94 % 1024,9 hPa 0,0 l/m 7,0 km/h (2 Bft) W-SW 0,00 h 0,0 UV-I 0 W/m -0,0 C -0,4 C 11,7 km/h (2 Bft)
27.11.2017 01:00 22,9 C 0,8 C 57 % 94 % 1024,8 hPa 0,0 l/m 8,7 km/h (2 Bft) SW 0,00 h 0,0 UV-I 0 W/m -0,0 C -1,4 C 13,9 km/h (3 Bft)
27.11.2017 02:00 22,9 C 1,0 C 58 % 93 % 1025,1 hPa 0,0 l/m 5,2 km/h (1 Bft) W-SW 0,00 h 0,0 UV-I 0 W/m -0,0 C 0,6 C 9,1 km/h (2 Bft)
27.11.2017 03:00 22,8 C 0,9 C 58 % 94 % 1025,3 hPa 0,0 l/m 3,9 km/h (1 Bft) SW 0,00 h 0,0 UV-I 0 W/m -0,0 C 0,9 C 7,2 km/h (2 Bft)
27.11.2017 04:00 22,8 C 0,9 C 57 % 94 % 1025,2 hPa 0,0 l/m 3,2 km/h (1 Bft) SW 0,00 h 0,0 UV-I 0 W/m 0,1 C 0,9 C 6,8 km/h (2 Bft)
27.11.2017 05:00 22,8 C 1,1 C 57 % 93 % 1025,1 hPa 0,0 l/m 5,1 km/h (1 Bft) W-SW 0,00 h 0,0 UV-I 0 W/m 0,1 C 0,8 C 9,1 km/h (2 Bft)
27.11.2017 06:00 22,8 C 1,1 C 57 % 92 % 1024,9 hPa 0,0 l/m 3,7 km/h (1 Bft) SW 0,00 h 0,0 UV-I 0 W/m -0,0 C 1,0 C 7,4 km/h (2 Bft)
27.11.2017 07:00 22,9 C 1,1 C 57 % 92 % 1024,7 hPa 0,0 l/m 3,3 km/h (1 Bft) SW 0,00 h 0,0 UV-I 0 W/m 0,0 C 1,1 C 6,7 km/h (2 Bft)
27.11.2017 08:00 23,0 C 1,0 C 56 % 93 % 1024,9 hPa 0,0 l/m 3,5 km/h (1 Bft) SW 0,00 h 0,0 UV-I 18 W/m 0,0 C 0,9 C 7,0 km/h (2 Bft)
27.11.2017 09:00 22,9 C 1,1 C 52 % 90 % 1024,9 hPa 0,2 l/m 6,1 km/h (2 Bft) SW 0,00 h 0,5 UV-I 23 W/m -0,4 C 0,0 C 9,9 km/h (2 Bft)
27.11.2017 10:00 22,8 C 1,5 C 50 % 88 % 1024,4 hPa 0,0 l/m 6,3 km/h (2 Bft) SW 0,02 h 0,6 UV-I 105 W/m -0,3 C 0,4 C 10,6 km/h (2 Bft)
27.11.2017 11:00 22,6 C 1,8 C 49 % 87 % 1023,6 hPa 0,0 l/m 7,8 km/h (2 Bft) S-SW 0,08 h 0,6 UV-I 97 W/m -0,1 C 0,1 C 12,3 km/h (3 Bft)
27.11.2017 12:00 22,7 C 1,7 C 50 % 86 % 1022,6 hPa 0,0 l/m 7,4 km/h (2 Bft) S 0,00 h 0,5 UV-I 77 W/m -0,3 C 0,3 C 12,6 km/h (3 Bft)
27.11.2017 13:00 22,7 C 1,9 C 51 % 85 % 1021,7 hPa 0,0 l/m 7,8 km/h (2 Bft) S 0,00 h 0,5 UV-I 80 W/m -0,3 C 0,4 C 13,3 km/h (3 Bft)
27.11.2017 14:00 22,7 C 2,2 C 52 % 85 % 1020,6 hPa 0,0 l/m 8,5 km/h (2 Bft) S 0,00 h 0,5 UV-I 40 W/m -0,1 C 0,3 C 13,5 km/h (3 Bft)
27.11.2017 15:00 22,8 C 2,2 C 53 % 87 % 1019,8 hPa 0,0 l/m 8,9 km/h (2 Bft) S 0,00 h 0,0 UV-I 20 W/m 0,2 C -0,2 C 14,1 km/h (3 Bft)
27.11.2017 16:00 22,8 C 1,7 C 54 % 91 % 1019,0 hPa 0,0 l/m 8,6 km/h (2 Bft) S 0,00 h 0,0 UV-I 0 W/m 0,4 C -0,5 C 13,4 km/h (3 Bft)
27.11.2017 17:00 22,8 C 1,4 C 55 % 94 % 1018,1 hPa 0,2 l/m 11,5 km/h (2 Bft) S 0,00 h 0,0 UV-I 0 W/m 0,6 C -2,8 C 17,4 km/h (3 Bft)
27.11.2017 18:00 22,8 C 1,6 C 54 % 94 % 1017,2 hPa 0,2 l/m 12,8 km/h (3 Bft) S 0,00 h 0,0 UV-I 0 W/m 0,8 C -3,5 C 19,9 km/h (4 Bft)
27.11.2017 19:00 22,9 C 1,4 C 53 % 95 % 1016,4 hPa 0,4 l/m 12,5 km/h (3 Bft) S 0,00 h 0,0 UV-I 0 W/m 0,7 C -3,6 C 19,1 km/h (3 Bft)
27.11.2017 20:00 22,7 C 1,2 C 54 % 95 % 1015,8 hPa 0,8 l/m 10,5 km/h (2 Bft) S 0,00 h 0,0 UV-I 0 W/m 0,6 C -2,3 C 16,3 km/h (3 Bft)
27.11.2017 21:00 22,7 C 1,2 C 54 % 96 % 1015,3 hPa 0,6 l/m 9,9 km/h (2 Bft) S 0,00 h 0,0 UV-I 0 W/m 0,6 C -1,9 C 15,0 km/h (3 Bft)
27.11.2017 22:00 22,8 C 1,3 C 55 % 96 % 1014,5 hPa 0,4 l/m 11,0 km/h (2 Bft) S 0,00 h 0,0 UV-I 0 W/m 0,7 C -2,7 C 17,4 km/h (3 Bft)
27.11.2017 23:00 22,8 C 1,6 C 55 % 96 % 1013,7 hPa 0,2 l/m 11,0 km/h (2 Bft) S 0,00 h 0,0 UV-I 0 W/m 1,0 C -2,3 C 17,2 km/h (3 Bft)
28.11.2017 00:00 22,7 C 1,5 C 56 % 96 % 1012,9 hPa 0,4 l/m 10,8 km/h (2 Bft) S 0,00 h 0,0 UV-I 0 W/m 1,0 C -2,2 C 17,6 km/h (3 Bft)
28.11.2017 01:00 22,6 C 1,4 C 57 % 96 % 1012,6 hPa 0,2 l/m 11,3 km/h (2 Bft) S 0,00 h 0,0 UV-I 0 W/m 0,9 C -2,7 C 17,4 km/h (3 Bft)
28.11.2017 02:00 22,4 C 1,4 C 57 % 96 % 1012,1 hPa 0,4 l/m 8,7 km/h (2 Bft) S 0,00 h 0,0 UV-I 0 W/m 0,9 C -0,8 C 14,0 km/h (3 Bft)
28.11.2017 03:00 22,4 C 1,5 C 58 % 96 % 1011,4 hPa 0,2 l/m 8,5 km/h (2 Bft) S 0,00 h 0,0 UV-I 0 W/m 0,9 C -0,6 C 13,6 km/h (3 Bft)
28.11.2017 04:00 22,3 C 1,7 C 56 % 96 % 1010,7 hPa 0,6 l/m 10,1 km/h (2 Bft) S 0,00 h 0,0 UV-I 0 W/m 1,1 C -1,6 C 15,8 km/h (3 Bft)
28.11.2017 05:00 22,3 C 1,4 C 57 % 96 % 1010,2 hPa 0,6 l/m 7,7 km/h (2 Bft) S 0,00 h 0,0 UV-I 0 W/m 0,8 C -0,2 C 12,2 km/h (2 Bft)
28.11.2017 06:00 22,4 C 1,2 C 56 % 96 % 1009,7 hPa 0,6 l/m 8,4 km/h (2 Bft) S 0,00 h 0,0 UV-I 0 W/m 0,6 C -0,7 C 12,5 km/h (3 Bft)
28.11.2017 07:00 22,6 C 1,4 C 56 % 96 % 1009,3 hPa 0,4 l/m 7,2 km/h (2 Bft) S 0,00 h 0,0 UV-I 0 W/m 0,8 C 0,1 C 11,8 km/h (2 Bft)
28.11.2017 08:00 22,7 C 1,5 C 57 % 96 % 1009,1 hPa 0,4 l/m 5,3 km/h (1 Bft) S 0,00 h 0,0 UV-I 7 W/m 0,9 C 1,0 C 9,2 km/h (2 Bft)
28.11.2017 09:00 22,9 C 1,9 C 55 % 96 % 1008,9 hPa 0,0 l/m 9,0 km/h (2 Bft) S 0,00 h 0,0 UV-I 11 W/m 1,4 C -0,6 C 13,9 km/h (3 Bft)
28.11.2017 10:00 22,9 C 2,4 C 57 % 96 % 1008,8 hPa 0,0 l/m 8,9 km/h (2 Bft) S 0,00 h 0,0 UV-I 33 W/m 1,8 C 0,1 C 15,0 km/h (3 Bft)
28.11.2017 11:00 22,7 C 2,6 C 56 % 96 % 1008,4 hPa 0,2 l/m 8,8 km/h (2 Bft) S 0,00 h 0,0 UV-I 32 W/m 2,1 C 0,4 C 14,5 km/h (3 Bft)
28.11.2017 12:00 22,7 C 2,7 C 56 % 96 % 1008,2 hPa 0,4 l/m 6,6 km/h (2 Bft) S 0,00 h 0,0 UV-I 24 W/m 2,2 C 1,6 C 11,5 km/h (2 Bft)
28.11.2017 13:00 22,8 C 3,0 C 56 % 96 % 1007,9 hPa 0,0 l/m 5,3 km/h (1 Bft) S 0,00 h 0,0 UV-I 29 W/m 2,4 C 2,6 C 10,0 km/h (2 Bft)
28.11.2017 14:00 22,9 C 3,3 C 56 % 96 % 1007,8 hPa 0,2 l/m 4,2 km/h (1 Bft) S-SW 0,00 h 0,0 UV-I 25 W/m 2,7 C 3,1 C 9,1 km/h (2 Bft)
28.11.2017 15:00 22,9 C 3,3 C 56 % 96 % 1007,8 hPa 0,0 l/m 4,2 km/h (1 Bft) S-SW 0,00 h 0,0 UV-I 20 W/m 2,7 C 3,1 C 8,6 km/h (2 Bft)
28.11.2017 16:00 22,9 C 3,2 C 55 % 96 % 1007,9 hPa 0,0 l/m 4,2 km/h (1 Bft) S-SW 0,00 h 0,0 UV-I 0 W/m 2,6 C 3,0 C 8,3 km/h (2 Bft)
28.11.2017 17:00 22,9 C 2,8 C 55 % 95 % 1007,8 hPa 0,0 l/m 3,4 km/h (1 Bft) S-SW 0,00 h 0,0 UV-I 0 W/m 2,1 C 2,7 C 7,0 km/h (2 Bft)
28.11.2017 18:00 22,9 C 2,8 C 56 % 95 % 1007,7 hPa 0,0 l/m 1,4 km/h (1 Bft) S-SW 0,00 h 0,0 UV-I 0 W/m 2,0 C 2,8 C 3,3 km/h (1 Bft)
28.11.2017 19:00 22,9 C 2,7 C 56 % 95 % 1007,4 hPa 0,0 l/m 1,4 km/h (1 Bft) S 0,00 h 0,0 UV-I 0 W/m 2,0 C 2,7 C 3,1 km/h (1 Bft)
28.11.2017 20:00 23,0 C 2,6 C 57 % 96 % 1007,3 hPa 0,0 l/m 0,1 km/h (0 Bft) SW 0,00 h 0,0 UV-I 0 W/m 2,0 C 2,6 C 0,3 km/h (0 Bft)
28.11.2017 21:00 23,1 C 2,6 C 57 % 96 % 1007,1 hPa 0,0 l/m 0,2 km/h (0 Bft) SW 0,00 h 0,0 UV-I 0 W/m 2,0 C 2,6 C 0,6 km/h (0 Bft)
28.11.2017 22:00 23,2 C 2,4 C 57 % 96 % 1007,0 hPa 0,0 l/m 0,0 km/h (0 Bft) N 0,00 h 0,0 UV-I 0 W/m 1,8 C 2,4 C 0,0 km/h (0 Bft)
28.11.2017 23:00 23,2 C 2,2 C 58 % 96 % 1006,8 hPa 0,0 l/m 0,0 km/h (0 Bft) N 0,00 h 0,0 UV-I 0 W/m 1,7 C 2,2 C 0,0 km/h (0 Bft)
29.11.2017 00:00 23,1 C 2,1 C 59 % 96 % 1006,7 hPa 0,0 l/m 0,0 km/h (0 Bft) N 0,00 h 0,0 UV-I 0 W/m 1,5 C 2,1 C 0,0 km/h (0 Bft)
29.11.2017 01:00 23,0 C 1,8 C 60 % 96 % 1006,6 hPa 0,2 l/m 0,0 km/h (0 Bft) N 0,00 h 0,0 UV-I 0 W/m 1,2 C 1,8 C 0,0 km/h (0 Bft)
29.11.2017 02:00 22,8 C 1,5 C 59 % 96 % 1006,6 hPa 0,0 l/m 0,0 km/h (0 Bft) N 0,00 h 0,0 UV-I 0 W/m 0,9 C 1,5 C 0,0 km/h (0 Bft)
29.11.2017 03:00 22,7 C 1,5 C 60 % 97 % 1006,3 hPa 0,0 l/m 0,0 km/h (0 Bft) N 0,00 h 0,0 UV-I 0 W/m 1,0 C 1,5 C 0,0 km/h (0 Bft)
29.11.2017 04:00 22,7 C 1,5 C 59 % 97 % 1006,2 hPa 0,0 l/m 0,0 km/h (0 Bft) N 0,00 h 0,0 UV-I 0 W/m 1,1 C 1,5 C 0,0 km/h (0 Bft)
29.11.2017 05:00 22,7 C 1,6 C 59 % 97 % 1006,2 hPa 0,0 l/m 0,0 km/h (0 Bft) N 0,00 h 0,0 UV-I 0 W/m 1,2 C 1,6 C 0,0 km/h (0 Bft)
29.11.2017 06:00 22,7 C 1,6 C 59 % 97 % 1006,1 hPa 0,0 l/m 0,7 km/h (0 Bft) S-SO 0,00 h 0,0 UV-I 0 W/m 1,1 C 1,6 C 1,5 km/h (1 Bft)
29.11.2017 07:00 22,8 C 1,3 C 58 % 97 % 1006,3 hPa 0,0 l/m 0,5 km/h (0 Bft) S 0,00 h 0,0 UV-I 0 W/m 0,9 C 1,3 C 1,4 km/h (1 Bft)
29.11.2017 08:00 22,9 C 1,0 C 58 % 97 % 1006,8 hPa 0,0 l/m 0,0 km/h (0 Bft) N 0,00 h 0,0 UV-I 18 W/m 0,6 C 1,0 C 0,0 km/h (0 Bft)
29.11.2017 09:00 22,9 C 1,3 C 58 % 97 % 1006,9 hPa 0,0 l/m 0,0 km/h (0 Bft) N 0,00 h 0,0 UV-I 25 W/m 0,9 C 1,3 C 0,0 km/h (0 Bft)
29.11.2017 10:00 23,0 C 1,7 C 57 % 97 % 1007,1 hPa 0,0 l/m 0,9 km/h (0 Bft) S-SW 0,00 h 0,5 UV-I 52 W/m 1,3 C 1,7 C 2,0 km/h (1 Bft)
29.11.2017 11:00 23,1 C 2,1 C 57 % 97 % 1006,6 hPa 0,0 l/m 0,1 km/h (0 Bft) SO 0,00 h 0,6 UV-I 81 W/m 1,6 C 2,1 C 0,2 km/h (0 Bft)
29.11.2017 12:00 23,3 C 2,6 C 57 % 94 % 1006,3 hPa 0,0 l/m 0,0 km/h (0 Bft) N 0,00 h 0,6 UV-I 84 W/m 1,8 C 2,6 C 0,1 km/h (0 Bft)
29.11.2017 13:00 23,3 C 2,7 C 58 % 92 % 1006,2 hPa 0,0 l/m 0,4 km/h (0 Bft) S-SO 0,13 h 0,5 UV-I 86 W/m 1,6 C 2,7 C 1,2 km/h (1 Bft)
29.11.2017 14:00 23,4 C 2,7 C 58 % 93 % 1005,8 hPa 0,0 l/m 0,0 km/h (0 Bft) N 0,02 h 0,0 UV-I 59 W/m 1,7 C 2,7 C 0,0 km/h (0 Bft)
29.11.2017 15:00 23,4 C 2,4 C 59 % 93 % 1006,0 hPa 0,2 l/m 0,1 km/h (0 Bft) S-SO 0,00 h 0,0 UV-I 14 W/m 1,3 C 2,4 C 0,2 km/h (0 Bft)
29.11.2017 16:00 23,3 C 1,9 C 59 % 94 % 1006,0 hPa 0,0 l/m 0,0 km/h (0 Bft) N 0,00 h 0,0 UV-I 0 W/m 0,9 C 1,9 C 0,0 km/h (0 Bft)
29.11.2017 17:00 23,3 C 1,8 C 59 % 95 % 1006,0 hPa 0,0 l/m 0,0 km/h (0 Bft) N 0,00 h 0,0 UV-I 0 W/m 1,1 C 1,8 C 0,0 km/h (0 Bft)
29.11.2017 18:00 23,1 C 1,7 C 56 % 95 % 1005,9 hPa 0,0 l/m 0,0 km/h (0 Bft) O-NO 0,00 h 0,0 UV-I 0 W/m 1,0 C 1,7 C 0,2 km/h (0 Bft)
29.11.2017 19:00 23,1 C 1,2 C 55 % 95 % 1005,9 hPa 0,0 l/m 0,0 km/h (0 Bft) N 0,00 h 0,0 UV-I 0 W/m 0,5 C 1,2 C 0,0 km/h (0 Bft)
29.11.2017 20:00 23,1 C 0,8 C 57 % 95 % 1006,1 hPa 0,0 l/m 0,0 km/h (0 Bft) O-NO 0,00 h 0,0 UV-I 0 W/m 0,1 C 0,8 C 0,2 km/h (0 Bft)
29.11.2017 21:00 23,2 C 0,6 C 58 % 96 % 1006,2 hPa 0,0 l/m 0,0 km/h (0 Bft) N 0,00 h 0,0 UV-I 0 W/m -0,0 C 0,6 C 0,0 km/h (0 Bft)
29.11.2017 22:00 23,2 C 0,6 C 58 % 96 % 1006,0 hPa 0,0 l/m 0,0 km/h (0 Bft) N 0,00 h 0,0 UV-I 0 W/m 0,1 C 0,6 C 0,0 km/h (0 Bft)
29.11.2017 23:00 23,3 C 0,7 C 59 % 96 % 1005,8 hPa 0,2 l/m 0,0 km/h (0 Bft) N 0,00 h 0,0 UV-I 0 W/m 0,1 C 0,7 C 0,0 km/h (0 Bft)
30.11.2017 00:00 23,3 C 0,7 C 59 % 96 % 1005,3 hPa 0,0 l/m 0,0 km/h (0 Bft) N 0,00 h 0,0 UV-I 0 W/m 0,1 C 0,7 C 0,0 km/h (0 Bft)
30.11.2017 01:00 23,2 C 0,7 C 60 % 96 % 1004,9 hPa 0,0 l/m 0,0 km/h (0 Bft) N 0,00 h 0,0 UV-I 0 W/m 0,1 C 0,7 C 0,0 km/h (0 Bft)
30.11.2017 02:00 23,1 C 0,7 C 60 % 96 % 1004,8 hPa 0,0 l/m 0,0 km/h (0 Bft) N 0,00 h 0,0 UV-I 0 W/m 0,1 C 0,7 C 0,0 km/h (0 Bft)
30.11.2017 03:00 22,9 C 0,6 C 60 % 97 % 1004,7 hPa 0,0 l/m 0,0 km/h (0 Bft) N 0,00 h 0,0 UV-I 0 W/m 0,2 C 0,6 C 0,0 km/h (0 Bft)
30.11.2017 04:00 22,8 C 0,6 C 60 % 97 % 1004,5 hPa 0,0 l/m 0,8 km/h (0 Bft) W-NW 0,00 h 0,0 UV-I 0 W/m 0,2 C 0,6 C 1,9 km/h (1 Bft)
30.11.2017 05:00 22,8 C 0,2 C 59 % 97 % 1004,4 hPa 0,0 l/m 0,5 km/h (0 Bft) W-NW 0,00 h 0,0 UV-I 0 W/m -0,2 C 0,2 C 0,9 km/h (0 Bft)
30.11.2017 06:00 23,0 C 0,0 C 59 % 97 % 1004,3 hPa 0,0 l/m 0,0 km/h (0 Bft) W-SW 0,00 h 0,0 UV-I 0 W/m -0,4 C 0,0 C 0,0 km/h (0 Bft)
30.11.2017 07:00 23,1 C -0,4 C 59 % 96 % 1004,3 hPa 0,0 l/m 2,2 km/h (1 Bft) W-SW 0,00 h 0,0 UV-I 0 W/m -1,0 C -0,4 C 4,2 km/h (1 Bft)
30.11.2017 08:00 23,1 C -0,9 C 58 % 96 % 1004,7 hPa 0,0 l/m 0,3 km/h (0 Bft) W 0,00 h 0,0 UV-I 15 W/m -1,5 C -0,9 C 0,9 km/h (0 Bft)
30.11.2017 09:00 23,1 C -1,0 C 57 % 96 % 1004,8 hPa 0,0 l/m 0,0 km/h (0 Bft) N 0,00 h 0,0 UV-I 47 W/m -1,5 C -1,0 C 0,1 km/h (0 Bft)
30.11.2017 10:00 23,2 C -0,4 C 56 % 96 % 1004,8 hPa 0,0 l/m 0,1 km/h (0 Bft) NO 0,07 h 0,6 UV-I 89 W/m -1,0 C -0,4 C 0,3 km/h (0 Bft)
30.11.2017 11:00 23,9 C 0,6 C 54 % 94 % 1004,3 hPa 0,0 l/m 0,0 km/h (0 Bft) N 0,32 h 0,6 UV-I 147 W/m -0,3 C 0,6 C 0,0 km/h (0 Bft)
30.11.2017 12:00 23,8 C 0,8 C 51 % 89 % 1004,2 hPa 0,0 l/m 0,5 km/h (0 Bft) S 0,13 h 0,6 UV-I 89 W/m -0,7 C 0,8 C 1,6 km/h (1 Bft)
30.11.2017 13:00 23,5 C 0,5 C 50 % 90 % 1004,1 hPa 0,0 l/m 1,4 km/h (1 Bft) S 0,00 h 0,0 UV-I 25 W/m -0,9 C 0,5 C 3,5 km/h (1 Bft)
30.11.2017 14:00 23,2 C 0,4 C 52 % 92 % 1004,0 hPa 0,0 l/m 1,6 km/h (1 Bft) S 0,00 h 0,0 UV-I 35 W/m -0,8 C 0,4 C 3,6 km/h (1 Bft)
30.11.2017 15:00 23,1 C 0,2 C 52 % 93 % 1004,2 hPa 0,8 l/m 0,2 km/h (0 Bft) S-SO 0,00 h 0,0 UV-I 9 W/m -0,7 C 0,2 C 0,9 km/h (0 Bft)
30.11.2017 16:00 23,0 C -0,1 C 52 % 94 % 1004,6 hPa 0,0 l/m 1,4 km/h (1 Bft) W-SW 0,00 h 0,0 UV-I 0 W/m -0,9 C -0,1 C 3,3 km/h (1 Bft)
30.11.2017 17:00 22,9 C -0,5 C 52 % 94 % 1005,3 hPa 0,0 l/m 4,4 km/h (1 Bft) W-SW 0,00 h 0,0 UV-I 0 W/m -1,3 C -0,6 C 8,2 km/h (2 Bft)
30.11.2017 18:00 22,8 C -1,3 C 54 % 93 % 1006,0 hPa 0,0 l/m 5,3 km/h (1 Bft) W-SW 0,00 h 0,0 UV-I 0 W/m -2,3 C -1,7 C 8,7 km/h (2 Bft)
30.11.2017 19:00 22,8 C -1,9 C 56 % 93 % 1006,5 hPa 0,0 l/m 3,6 km/h (1 Bft) W-SW 0,00 h 0,0 UV-I 0 W/m -2,8 C -1,9 C 6,2 km/h (2 Bft)
30.11.2017 20:00 22,8 C -1,7 C 56 % 94 % 1007,0 hPa 0,0 l/m 1,5 km/h (1 Bft) S 0,00 h 0,0 UV-I 0 W/m -2,5 C -1,7 C 2,8 km/h (1 Bft)
30.11.2017 21:00 22,9 C -1,4 C 57 % 94 % 1007,4 hPa 0,0 l/m 1,2 km/h (1 Bft) S 0,00 h 0,0 UV-I 0 W/m -2,2 C -1,4 C 2,6 km/h (1 Bft)
30.11.2017 22:00 23,0 C -1,2 C 57 % 95 % 1007,5 hPa 0,0 l/m 0,2 km/h (0 Bft) S 0,00 h 0,0 UV-I 0 W/m -1,9 C -1,2 C 0,5 km/h (0 Bft)
30.11.2017 23:00 23,1 C -1,1 C 57 % 95 % 1007,9 hPa 0,0 l/m 0,2 km/h (0 Bft) S-SO 0,00 h 0,0 UV-I 0 W/m -1,8 C -1,1 C 0,7 km/h (0 Bft)
01.12.2017 00:00 23,1 C -1,1 C 57 % 94 % 1008,1 hPa 0,0 l/m 0,2 km/h (0 Bft) S-SW 0,00 h 0,0 UV-I 0 W/m -1,9 C -1,1 C 0,7 km/h (0 Bft)
01.12.2017 01:00 23,0 C -1,2 C 58 % 94 % 1008,3 hPa 0,0 l/m 0,0 km/h (0 Bft) N 0,00 h 0,0 UV-I 0 W/m -2,0 C -1,2 C 0,0 km/h (0 Bft)
01.12.2017 02:00 22,9 C -0,9 C 58 % 95 % 1008,6 hPa 0,0 l/m 0,0 km/h (0 Bft) N 0,00 h 0,0 UV-I 0 W/m -1,6 C -0,9 C 0,1 km/h (0 Bft)
01.12.2017 03:00 22,8 C -0,7 C 59 % 95 % 1008,9 hPa 0,0 l/m 0,0 km/h (0 Bft) N 0,00 h 0,0 UV-I 0 W/m -1,4 C -0,7 C 0,0 km/h (0 Bft)
01.12.2017 04:00 22,7 C -0,5 C 58 % 95 % 1009,3 hPa 0,0 l/m 0,0 km/h (0 Bft) N 0,00 h 0,0 UV-I 0 W/m -1,2 C -0,5 C 0,0 km/h (0 Bft)
01.12.2017 05:00 22,6 C -0,3 C 57 % 95 % 1009,8 hPa 0,0 l/m 0,0 km/h (0 Bft) N 0,00 h 0,0 UV-I 0 W/m -1,0 C -0,3 C 0,0 km/h (0 Bft)
01.12.2017 06:00 22,6 C -0,3 C 57 % 95 % 1010,3 hPa 0,0 l/m 0,0 km/h (0 Bft) N 0,00 h 0,0 UV-I 0 W/m -1,0 C -0,3 C 0,0 km/h (0 Bft)
01.12.2017 07:00 22,7 C -0,2 C 57 % 95 % 1011,1 hPa 0,0 l/m 0,0 km/h (0 Bft) N 0,00 h 0,0 UV-I 0 W/m -0,9 C -0,2 C 0,0 km/h (0 Bft)
01.12.2017 08:00 22,9 C -0,1 C 57 % 95 % 1012,0 hPa 0,0 l/m 0,0 km/h (0 Bft) N 0,00 h 0,0 UV-I 12 W/m -0,8 C -0,1 C 0,0 km/h (0 Bft)
01.12.2017 09:00 23,0 C 0,0 C 56 % 96 % 1012,8 hPa 0,0 l/m 0,0 km/h (0 Bft) N 0,00 h 0,0 UV-I 45 W/m -0,5 C 0,0 C 0,0 km/h (0 Bft)
01.12.2017 10:00 23,1 C 0,9 C 56 % 95 % 1013,6 hPa 0,0 l/m 0,0 km/h (0 Bft) N 0,57 h 0,6 UV-I 186 W/m 0,2 C 0,9 C 0,0 km/h (0 Bft)
01.12.2017 11:00 23,3 C 2,2 C 55 % 89 % 1013,8 hPa 0,0 l/m 0,0 km/h (0 Bft) N 0,93 h 0,8 UV-I 260 W/m 0,5 C 2,2 C 0,0 km/h (0 Bft)
01.12.2017 12:00 23,8 C 2,3 C 54 % 87 % 1014,0 hPa 0,0 l/m 0,1 km/h (0 Bft) N-NW 0,67 h 0,7 UV-I 183 W/m 0,3 C 2,3 C 0,3 km/h (0 Bft)
01.12.2017 13:00 24,1 C 1,7 C 52 % 88 % 1014,3 hPa 0,0 l/m 0,0 km/h (0 Bft) N 0,00 h 0,5 UV-I 64 W/m -0,0 C 1,7 C 0,0 km/h (0 Bft)
01.12.2017 14:00 24,0 C 1,4 C 51 % 89 % 1014,8 hPa 0,0 l/m 0,0 km/h (0 Bft) N 0,00 h 0,0 UV-I 59 W/m -0,1 C 1,4 C 0,0 km/h (0 Bft)
01.12.2017 15:00 23,6 C 1,2 C 51 % 90 % 1015,5 hPa 0,0 l/m 0,0 km/h (0 Bft) N 0,00 h 0,0 UV-I 25 W/m -0,2 C 1,2 C 0,0 km/h (0 Bft)
01.12.2017 16:00 23,2 C 0,5 C 52 % 90 % 1016,3 hPa 0,0 l/m 0,0 km/h (0 Bft) N 0,00 h 0,0 UV-I 5 W/m -0,9 C 0,5 C 0,0 km/h (0 Bft)
01.12.2017 17:00 23,0 C -0,4 C 53 % 91 % 1017,0 hPa 0,0 l/m 0,0 km/h (0 Bft) N 0,00 h 0,0 UV-I 0 W/m -1,7 C -0,4 C 0,0 km/h (0 Bft)
01.12.2017 18:00 22,9 C -0,8 C 53 % 93 % 1017,7 hPa 0,0 l/m 0,0 km/h (0 Bft) N 0,00 h 0,0 UV-I 0 W/m -1,8 C -0,8 C 0,0 km/h (0 Bft)
01.12.2017 19:00 22,9 C -1,1 C 54 % 94 % 1018,2 hPa 0,0 l/m 0,0 km/h (0 Bft) N 0,00 h 0,0 UV-I 0 W/m -2,0 C -1,1 C 0,0 km/h (0 Bft)
01.12.2017 20:00 22,9 C -1,9 C 54 % 94 % 1018,9 hPa 0,0 l/m 0,0 km/h (0 Bft) N 0,00 h 0,0 UV-I 0 W/m -2,8 C -1,9 C 0,0 km/h (0 Bft)
01.12.2017 21:00 22,9 C -2,7 C 55 % 94 % 1019,5 hPa 0,0 l/m 0,0 km/h (0 Bft) N 0,00 h 0,0 UV-I 0 W/m -3,5 C -2,7 C 0,0 km/h (0 Bft)
01.12.2017 22:00 23,0 C -3,1 C 56 % 94 % 1020,1 hPa 0,0 l/m 0,0 km/h (0 Bft) N 0,00 h 0,0 UV-I 0 W/m -3,9 C -3,1 C 0,0 km/h (0 Bft)
01.12.2017 23:00 23,0 C -3,1 C 57 % 95 % 1020,7 hPa 0,0 l/m 0,0 km/h (0 Bft) N 0,00 h 0,0 UV-I 0 W/m -3,8 C -3,1 C 0,0 km/h (0 Bft)
02.12.2017 00:00 22,9 C -2,9 C 57 % 95 % 1021,0 hPa 0,0 l/m 0,0 km/h (0 Bft) N 0,00 h 0,0 UV-I 0 W/m -3,6 C -2,9 C 0,0 km/h (0 Bft)
02.12.2017 01:00 22,7 C -2,8 C 58 % 95 % 1021,4 hPa 0,0 l/m 0,0 km/h (0 Bft) N 0,00 h 0,0 UV-I 0 W/m -3,5 C -2,8 C 0,0 km/h (0 Bft)
02.12.2017 02:00 22,6 C -3,4 C 58 % 95 % 1022,1 hPa 0,0 l/m 0,0 km/h (0 Bft) N 0,00 h 0,0 UV-I 0 W/m -4,1 C -3,4 C 0,0 km/h (0 Bft)
02.12.2017 03:00 22,6 C -4,3 C 59 % 94 % 1022,6 hPa 0,0 l/m 0,0 km/h (0 Bft) N 0,00 h 0,0 UV-I 0 W/m -5,1 C -4,3 C 0,0 km/h (0 Bft)
02.12.2017 04:00 22,4 C -4,8 C 60 % 94 % 1023,1 hPa 0,0 l/m 0,0 km/h (0 Bft) N 0,00 h 0,0 UV-I 0 W/m -5,6 C -4,8 C 0,0 km/h (0 Bft)
02.12.2017 05:00 22,3 C -5,2 C 60 % 94 % 1023,8 hPa 0,0 l/m 0,0 km/h (0 Bft) N 0,00 h 0,0 UV-I 0 W/m -6,0 C -5,2 C 0,0 km/h (0 Bft)
02.12.2017 06:00 22,4 C -4,7 C 59 % 95 % 1024,2 hPa 0,0 l/m 0,0 km/h (0 Bft) N 0,00 h 0,0 UV-I 0 W/m -5,4 C -4,7 C 0,0 km/h (0 Bft)
02.12.2017 07:00 22,6 C -3,7 C 59 % 95 % 1024,7 hPa 0,0 l/m 0,0 km/h (0 Bft) N 0,00 h 0,0 UV-I 0 W/m -4,3 C -3,7 C 0,0 km/h (0 Bft)
02.12.2017 08:00 22,8 C -3,0 C 58 % 96 % 1025,2 hPa 0,0 l/m 0,0 km/h (0 Bft) N 0,00 h 0,0 UV-I 11 W/m -3,5 C -3,0 C 0,0 km/h (0 Bft)
02.12.2017 09:00 22,8 C -2,5 C 57 % 94 % 1025,8 hPa 0,0 l/m 0,0 km/h (0 Bft) N 0,00 h 0,0 UV-I 32 W/m -3,2 C -2,5 C 0,0 km/h (0 Bft)
02.12.2017 10:00 22,7 C -1,8 C 53 % 93 % 1026,3 hPa 0,0 l/m 0,1 km/h (0 Bft) N 0,00 h 0,5 UV-I 74 W/m -2,7 C -1,8 C 0,2 km/h (0 Bft)
02.12.2017 11:00 22,9 C -1,2 C 54 % 90 % 1026,1 hPa 0,0 l/m 1,3 km/h (1 Bft) N-NO 0,00 h 0,5 UV-I 105 W/m -2,6 C -1,2 C 3,4 km/h (1 Bft)
02.12.2017 12:00 22,9 C -1,1 C 55 % 87 % 1025,9 hPa 0,0 l/m 1,6 km/h (1 Bft) N-NO 0,00 h 0,5 UV-I 82 W/m -2,9 C -1,1 C 3,1 km/h (1 Bft)
02.12.2017 13:00 22,9 C -1,0 C 56 % 87 % 1025,8 hPa 0,0 l/m 3,7 km/h (1 Bft) N-NO 0,00 h 0,5 UV-I 74 W/m -2,9 C -1,0 C 6,2 km/h (2 Bft)
02.12.2017 14:00 22,7 C -1,3 C 49 % 86 % 1025,9 hPa 0,0 l/m 0,5 km/h (0 Bft) O-NO 0,00 h 0,0 UV-I 45 W/m -3,3 C -1,3 C 1,3 km/h (1 Bft)
02.12.2017 15:00 22,8 C -1,6 C 49 % 87 % 1026,2 hPa 0,0 l/m 0,8 km/h (0 Bft) N 0,00 h 0,0 UV-I 17 W/m -3,5 C -1,6 C 1,0 km/h (0 Bft)
02.12.2017 16:00 22,8 C -1,7 C 51 % 87 % 1026,6 hPa 0,0 l/m 1,4 km/h (1 Bft) N 0,00 h 0,0 UV-I 0 W/m -3,5 C -1,8 C 2,2 km/h (1 Bft)
02.12.2017 17:00 22,8 C -1,7 C 53 % 88 % 1026,8 hPa 0,0 l/m 2,7 km/h (1 Bft) O-NO 0,00 h 0,0 UV-I 0 W/m -3,5 C -1,8 C 4,9 km/h (1 Bft)
02.12.2017 18:00 23,0 C -1,9 C 54 % 85 % 1027,1 hPa 0,0 l/m 3,3 km/h (1 Bft) SO 0,00 h 0,0 UV-I 0 W/m -4,0 C -1,9 C 5,8 km/h (2 Bft)
02.12.2017 19:00 22,9 C -1,9 C 55 % 86 % 1027,2 hPa 0,0 l/m 3,1 km/h (1 Bft) S-SO 0,00 h 0,0 UV-I 0 W/m -4,0 C -1,9 C 5,5 km/h (1 Bft)
02.12.2017 20:00 22,9 C -2,2 C 55 % 86 % 1027,2 hPa 0,0 l/m 1,9 km/h (1 Bft) W-NW 0,00 h 0,0 UV-I 0 W/m -4,2 C -2,2 C 3,4 km/h (1 Bft)
02.12.2017 21:00 22,9 C -3,2 C 56 % 87 % 1027,2 hPa 0,0 l/m 1,9 km/h (1 Bft) N 0,00 h 0,0 UV-I 0 W/m -5,0 C -3,1 C 3,3 km/h (1 Bft)
02.12.2017 22:00 22,9 C -4,2 C 56 % 89 % 1027,1 hPa 0,0 l/m 0,0 km/h (0 Bft) N 0,00 h 0,0 UV-I 0 W/m -5,8 C -4,2 C 0,0 km/h (0 Bft)
02.12.2017 23:00 22,9 C -5,0 C 57 % 90 % 1027,1 hPa 0,0 l/m 0,0 km/h (0 Bft) N-NO 0,00 h 0,0 UV-I 0 W/m -6,4 C -5,0 C 0,1 km/h (0 Bft)
03.12.2017 00:00 22,8 C -5,7 C 57 % 90 % 1027,1 hPa 0,0 l/m 0,0 km/h (0 Bft) N 0,00 h 0,0 UV-I 0 W/m -7,1 C -5,7 C 0,0 km/h (0 Bft)
03.12.2017 01:00 22,6 C -6,4 C 58 % 91 % 1027,0 hPa 0,0 l/m 0,0 km/h (0 Bft) N 0,00 h 0,0 UV-I 0 W/m -7,7 C -6,4 C 0,0 km/h (0 Bft)
03.12.2017 02:00 22,4 C -6,9 C 59 % 91 % 1027,0 hPa 0,0 l/m 0,0 km/h (0 Bft) N 0,00 h 0,0 UV-I 0 W/m -8,0 C -6,9 C 0,1 km/h (0 Bft)
03.12.2017 03:00 22,3 C -7,1 C 59 % 92 % 1026,7 hPa 0,0 l/m 0,0 km/h (0 Bft) N-NO 0,00 h 0,0 UV-I 0 W/m -8,2 C -7,1 C 0,1 km/h (0 Bft)
03.12.2017 04:00 22,2 C -7,4 C 59 % 92 % 1026,6 hPa 0,0 l/m 0,3 km/h (0 Bft) NW 0,00 h 0,0 UV-I 0 W/m -8,4 C -7,4 C 0,8 km/h (0 Bft)
03.12.2017 05:00 22,2 C -6,9 C 59 % 93 % 1026,5 hPa 0,0 l/m 0,0 km/h (0 Bft) N 0,00 h 0,0 UV-I 0 W/m -7,8 C -6,9 C 0,0 km/h (0 Bft)
03.12.2017 06:00 22,4 C -6,1 C 59 % 94 % 1026,5 hPa 0,0 l/m 0,0 km/h (0 Bft) N 0,00 h 0,0 UV-I 0 W/m -6,9 C -6,1 C 0,0 km/h (0 Bft)
03.12.2017 07:00 22,6 C -5,6 C 58 % 94 % 1026,5 hPa 0,0 l/m 0,0 km/h (0 Bft) N 0,00 h 0,0 UV-I 0 W/m -6,4 C -5,6 C 0,0 km/h (0 Bft)
03.12.2017 08:00 22,6 C -5,0 C 58 % 94 % 1026,9 hPa 0,0 l/m 0,5 km/h (0 Bft) W-NW 0,00 h 0,0 UV-I 14 W/m -5,8 C -5,0 C 1,3 km/h (1 Bft)
03.12.2017 09:00 22,8 C -4,3 C 58 % 95 % 1027,1 hPa 0,0 l/m 0,7 km/h (0 Bft) NW 0,00 h 0,0 UV-I 32 W/m -5,0 C -4,3 C 1,4 km/h (1 Bft)
03.12.2017 10:00 22,8 C -3,5 C 58 % 94 % 1027,1 hPa 0,0 l/m 4,5 km/h (1 Bft) W-SW 0,00 h 0,5 UV-I 61 W/m -4,4 C -3,8 C 7,4 km/h (2 Bft)
03.12.2017 11:00 22,6 C -2,9 C 55 % 90 % 1026,6 hPa 0,0 l/m 7,7 km/h (2 Bft) W-SW 0,00 h 0,0 UV-I 57 W/m -4,3 C -4,7 C 9,1 km/h (2 Bft)
03.12.2017 12:00 22,5 C -2,6 C 53 % 86 % 1025,9 hPa 0,0 l/m 7,9 km/h (2 Bft) W-SW 0,02 h 0,6 UV-I 93 W/m -4,7 C -4,5 C 12,4 km/h (3 Bft)
03.12.2017 13:00 22,6 C -2,1 C 53 % 84 % 1025,3 hPa 0,0 l/m 7,6 km/h (2 Bft) SW 0,13 h 0,6 UV-I 87 W/m -4,4 C -3,7 C 12,6 km/h (3 Bft)
03.12.2017 14:00 22,3 C -2,3 C 54 % 87 % 1025,2 hPa 0,0 l/m 5,7 km/h (1 Bft) SW 0,00 h 0,0 UV-I 18 W/m -4,1 C -2,7 C 9,7 km/h (2 Bft)
03.12.2017 15:00 22,2 C -2,6 C 55 % 91 % 1025,1 hPa 0,2 l/m 6,4 km/h (2 Bft) S 0,00 h 0,0 UV-I 10 W/m -3,9 C -3,5 C 9,8 km/h (2 Bft)
03.12.2017 16:00 22,3 C -2,9 C 55 % 93 % 1025,1 hPa 0,6 l/m 5,5 km/h (1 Bft) S 0,00 h 0,0 UV-I 0 W/m -3,8 C -3,2 C 8,7 km/h (2 Bft)
03.12.2017 17:00 22,2 C -2,8 C 54 % 94 % 1024,9 hPa 0,6 l/m 6,3 km/h (2 Bft) S 0,00 h 0,0 UV-I 0 W/m -3,6 C -3,5 C 9,9 km/h (2 Bft)
03.12.2017 18:00 22,2 C -2,8 C 55 % 94 % 1024,9 hPa 0,4 l/m 6,6 km/h (2 Bft) S-SW 0,00 h 0,0 UV-I 0 W/m -3,6 C -4,0 C 10,4 km/h (2 Bft)
03.12.2017 19:00 22,2 C -2,8 C 55 % 94 % 1024,9 hPa 0,0 l/m 5,9 km/h (2 Bft) S-SW 0,00 h 0,0 UV-I 0 W/m -3,6 C -3,3 C 9,8 km/h (2 Bft)
03.12.2017 20:00 22,3 C -2,7 C 56 % 94 % 1024,9 hPa 0,2 l/m 4,3 km/h (1 Bft) S-SW 0,00 h 0,0 UV-I 0 W/m -3,5 C -2,8 C 7,0 km/h (2 Bft)
03.12.2017 21:00 22,4 C -2,7 C 56 % 94 % 1024,7 hPa 0,2 l/m 5,1 km/h (1 Bft) S-SW 0,00 h 0,0 UV-I 0 W/m -3,5 C -3,0 C 8,8 km/h (2 Bft)
03.12.2017 22:00 22,5 C -2,7 C 56 % 94 % 1024,7 hPa 0,0 l/m 5,7 km/h (1 Bft) SW 0,00 h 0,0 UV-I 0 W/m -3,5 C -3,1 C 9,6 km/h (2 Bft)
03.12.2017 23:00 22,6 C -2,6 C 56 % 94 % 1024,8 hPa 0,0 l/m 4,5 km/h (1 Bft) SW 0,00 h 0,0 UV-I 0 W/m -3,4 C -2,7 C 7,7 km/h (2 Bft)
Min-Datum _ 03.12.17 03.12.17 02.12.17 03.12.17 30.11.17 - 27.11.17 - - - - 03.12.17 03.12.17 27.11.17
_ Min-Zeit 05:19 04:33 14:35 13:18 14:04 - 03:04 - - - - 04:36 13:57 00:02
Minimum _ 22,1 C -7,5 C 43 % 83 % 1003,9 hPa - 0,0 km/h (0 Bft) - - - - -8,6 C -9,3 C 0,0 km/h (0 Bft)
Max-Datum _ 01.12.17 28.11.17 29.11.17 28.11.17 02.12.17 27.11.17 27.11.17 - 01.12.17 27.11.17 01.12.17 28.11.17 28.11.17 27.11.17
_ Max-Zeit 13:32 14:29 01:07 09:12 19:19 20:00 18:01 - 12:03 10:53 11:59 14:30 14:40 18:29
Maximum _ 24,2 C 3,3 C 60 % 97 % 1027,4 hPa 0,8 l/m 19,3 km/h
S (3 Bft)
- 0,03 h 0,8 UV-I 425 W/m 2,7 C 3,3 C 33,8 km/h
S (5 Bft)
Durchschnitt _ 22,9 C -0,3 C 56 % 93 % 1015,3 hPa #11,2 l/m 2,7 km/h (1 Bft) S #3:05 h 0,6 UV-I 56 W/m -1,3 C -0,9 C 4,6 km/h (1 Bft)